Location: Alessandria
(44.9000°N, 8.6170°E)
Time: 03:50:01
(UTC+02:00)

ISS - Pass Details

Date: 19 May 2021
Orbit: 417 x 422 km, 51.6° (Epoch: 14 June)

Event Time Altitude Azimuth Distance (km) Brightness Sun altitude
Rises 23:41:59 0° 288° (WNW) 2,366 0.7 -21.2°
Reaches altitude 10° 23:44:20 10° 303° (WNW) 1,503 -0.2 -21.4°
Maximum altitude 23:47:11 25° 1° (N) 899 -1.4 -21.6°
Drops below altitude 10° 23:50:02 10° 58° (ENE) 1,506 -0.9 -21.8°
Enters shadow 23:50:24 - 61° (ENE) 1,628 -0.7 -21.9°
